contact:dominique.lefevre@mio.osupytheas.fr, maurice.libes@osupytheas.fr, didier.mallarino@osupytheas.fr
Project:EMSO http://www.emso-fr.org/EMSO-France
Depth: 2436.0 m
Title:EMSO Ligure Ouest : Data MII capteur MICROCAT
DateTime_Computer,Latitude,Longitude,Temperature,Conductivity,Pressure,DateTime_Instrument
DateTime_Computer,Latitude,Longitude,degC,S m-1,dbar,DateTime_Instrument
2023-02-11T00:01:48Z,42.805,6.029,13.3101,4.60153,2470.67,2023-2-11T02:04:10Z
2023-02-11T00:04:51Z,42.805,6.029,13.3077,4.60150,2470.67,2023-2-11T02:07:13Z
2023-02-11T00:07:54Z,42.805,6.029,13.3085,4.60117,2470.624,2023-2-11T02:10:16Z
2023-02-11T00:10:57Z,42.805,6.029,13.3085,4.60120,2470.661,2023-2-11T02:13:19Z
2023-02-11T00:14:01Z,42.805,6.029,13.3076,4.60114,2470.637,2023-2-11T02:16:22Z
2023-02-11T00:17:04Z,42.805,6.029,13.3069,4.60155,2470.624,2023-2-11T02:19:25Z
2023-02-11T00:20:07Z,42.805,6.029,13.3074,4.60152,2470.646,2023-2-11T02:22:28Z
2023-02-11T00:23:10Z,42.805,6.029,13.3091,4.60179,2470.661,2023-2-11T02:25:31Z
2023-02-11T00:26:13Z,42.805,6.029,13.3105,4.60122,2470.661,2023-2-11T02:28:34Z
2023-02-11T00:29:16Z,42.805,6.029,13.3093,4.60160,2470.661,2023-2-11T02:31:37Z
2023-02-11T00:32:19Z,42.805,6.029,13.3098,4.60152,2470.624,2023-2-11T02:34:41Z
2023-02-11T00:35:22Z,42.805,6.029,13.3082,4.60162,2470.624,2023-2-11T02:37:44Z
2023-02-11T00:38:25Z,42.805,6.029,13.3089,4.60178,2470.624,2023-2-11T02:40:47Z
2023-02-11T00:41:28Z,42.805,6.029,13.3101,4.60223,2470.637,2023-2-11T02:43:50Z
2023-02-11T00:44:31Z,42.805,6.029,13.3099,4.60135,2470.6,2023-2-11T02:46:53Z
2023-02-11T00:47:34Z,42.805,6.029,13.3082,4.60168,2470.661,2023-2-11T02:49:56Z
2023-02-11T00:50:38Z,42.805,6.029,13.3069,4.60154,2470.6,2023-2-11T02:52:59Z
2023-02-11T00:53:41Z,42.805,6.029,13.3075,4.60162,2470.661,2023-2-11T02:56:02Z
2023-02-11T00:56:44Z,42.805,6.029,13.3078,4.60158,2470.624,2023-2-11T02:59:05Z
2023-02-11T00:59:47Z,42.805,6.029,13.3063,4.60163,2470.6,2023-2-11T03:02:08Z
2023-02-11T01:02:50Z,42.805,6.029,13.3074,4.60180,2470.637,2023-2-11T03:05:11Z
2023-02-11T01:05:53Z,42.805,6.029,13.3093,4.60194,2470.637,2023-2-11T03:08:14Z
2023-02-11T01:08:56Z,42.805,6.029,13.3087,4.60176,2470.684,2023-2-11T03:11:17Z
2023-02-11T01:11:59Z,42.805,6.029,13.3097,4.60147,2470.624,2023-2-11T03:14:21Z
2023-02-11T01:15:02Z,42.805,6.029,13.3079,4.60178,2470.637,2023-2-11T03:17:24Z
2023-02-11T01:18:05Z,42.805,6.029,13.3063,4.60180,2470.614,2023-2-11T03:20:27Z
2023-02-11T01:21:08Z,42.805,6.029,13.3063,4.60167,2470.646,2023-2-11T03:23:30Z
2023-02-11T01:24:11Z,42.805,6.029,13.3073,4.60119,2470.614,2023-2-11T03:26:33Z
2023-02-11T01:27:14Z,42.805,6.029,13.3041,4.60175,2470.6,2023-2-11T03:29:36Z
2023-02-11T01:30:18Z,42.805,6.029,13.3058,4.60142,2470.614,2023-2-11T03:32:39Z
2023-02-11T01:33:21Z,42.805,6.029,13.3049,4.60125,2470.6,2023-2-11T03:35:42Z
2023-02-11T01:36:24Z,42.805,6.029,13.3072,4.60137,2470.624,2023-2-11T03:38:45Z
2023-02-11T01:39:27Z,42.805,6.029,13.3073,4.60144,2470.624,2023-2-11T03:41:48Z
2023-02-11T01:42:30Z,42.805,6.029,13.3073,4.60137,2470.577,2023-2-11T03:44:51Z
2023-02-11T01:45:33Z,42.805,6.029,13.3067,4.60117,2470.624,2023-2-11T03:47:54Z
2023-02-11T01:48:36Z,42.805,6.029,13.3078,4.60132,2470.614,2023-2-11T03:50:58Z
2023-02-11T01:51:39Z,42.805,6.029,13.3061,4.60169,2470.614,2023-2-11T03:54:01Z
2023-02-11T01:54:42Z,42.805,6.029,13.3065,4.60146,2470.6,2023-2-11T03:57:04Z
2023-02-11T01:57:45Z,42.805,6.029,13.3058,4.60156,2470.624,2023-2-11T04:00:07Z
2023-02-11T02:00:48Z,42.805,6.029,13.3070,4.60180,2470.624,2023-2-11T04:03:10Z
2023-02-11T02:03:51Z,42.805,6.029,13.3095,4.60176,2470.6,2023-2-11T04:06:13Z
2023-02-11T02:06:54Z,42.805,6.029,13.3081,4.60187,2470.6,2023-2-11T04:09:16Z
2023-02-11T02:09:58Z,42.805,6.029,13.3070,4.60185,2470.577,2023-2-11T04:12:19Z
2023-02-11T02:13:01Z,42.805,6.029,13.3059,4.60158,2470.586,2023-2-11T04:15:22Z
2023-02-11T02:16:04Z,42.805,6.029,13.3073,4.60150,2470.614,2023-2-11T04:18:25Z
2023-02-11T02:19:07Z,42.805,6.029,13.3069,4.60195,2470.614,2023-2-11T04:21:28Z
2023-02-11T02:22:10Z,42.805,6.029,13.3074,4.60196,2470.577,2023-2-11T04:24:31Z
2023-02-11T02:25:13Z,42.805,6.029,13.3052,4.60178,2470.591,2023-2-11T04:27:34Z
2023-02-11T02:28:16Z,42.805,6.029,13.3061,4.60122,2470.6,2023-2-11T04:30:38Z
2023-02-11T02:31:19Z,42.805,6.029,13.3035,4.60159,2470.6,2023-2-11T04:33:41Z
2023-02-11T02:34:22Z,42.805,6.029,13.3066,4.60194,2470.591,2023-2-11T04:36:44Z
2023-02-11T02:37:25Z,42.805,6.029,13.3067,4.60132,2470.624,2023-2-11T04:39:47Z
2023-02-11T02:40:28Z,42.805,6.029,13.3066,4.60142,2470.614,2023-2-11T04:42:50Z
2023-02-11T02:43:31Z,42.805,6.029,13.3070,4.60112,2470.577,2023-2-11T04:45:53Z
2023-02-11T02:46:34Z,42.805,6.029,13.3067,4.60125,2470.624,2023-2-11T04:48:56Z
2023-02-11T02:49:38Z,42.805,6.029,13.3054,4.60160,2470.614,2023-2-11T04:51:59Z
2023-02-11T02:52:41Z,42.805,6.029,13.3070,4.60162,2470.6,2023-2-11T04:55:02Z
2023-02-11T02:55:44Z,42.805,6.029,13.3084,4.60175,2470.591,2023-2-11T04:58:05Z
2023-02-11T02:58:47Z,42.805,6.029,13.3069,4.60179,2470.6,2023-2-11T05:01:08Z
2023-02-11T03:01:50Z,42.805,6.029,13.3056,4.60173,2470.591,2023-2-11T05:04:11Z
2023-02-11T03:04:53Z,42.805,6.029,13.3078,4.60170,2470.6,2023-2-11T05:07:15Z
2023-02-11T03:07:56Z,42.805,6.029,13.3063,4.60199,2470.614,2023-2-11T05:10:18Z
2023-02-11T03:10:59Z,42.805,6.029,13.3082,4.60156,2470.591,2023-2-11T05:13:21Z
2023-02-11T03:14:02Z,42.805,6.029,13.3071,4.60152,2470.591,2023-2-11T05:16:24Z
2023-02-11T03:17:05Z,42.805,6.029,13.3074,4.60121,2470.577,2023-2-11T05:19:27Z
2023-02-11T03:20:08Z,42.805,6.029,13.3073,4.60147,2470.591,2023-2-11T05:22:30Z
2023-02-11T03:23:11Z,42.805,6.029,13.3043,4.60148,2470.6,2023-2-11T05:25:33Z
2023-02-11T03:26:15Z,42.805,6.029,13.3058,4.60144,2470.6,2023-2-11T05:28:36Z
2023-02-11T03:29:18Z,42.805,6.029,13.3086,4.60176,2470.577,2023-2-11T05:31:39Z
2023-02-11T03:32:21Z,42.805,6.029,13.3070,4.60150,2470.591,2023-2-11T05:34:42Z
2023-02-11T03:35:24Z,42.805,6.029,13.3044,4.60166,2470.577,2023-2-11T05:37:45Z
2023-02-11T03:38:27Z,42.805,6.029,13.3060,4.60151,2470.591,2023-2-11T05:40:48Z
2023-02-11T03:41:30Z,42.805,6.029,13.3084,4.60160,2470.591,2023-2-11T05:43:51Z
2023-02-11T03:44:33Z,42.805,6.029,13.3092,4.60193,2470.577,2023-2-11T05:46:55Z
2023-02-11T03:47:36Z,42.805,6.029,13.3100,4.60183,2470.553,2023-2-11T05:49:58Z
2023-02-11T03:50:39Z,42.805,6.029,13.3070,4.60170,2470.591,2023-2-11T05:53:01Z
2023-02-11T03:53:42Z,42.805,6.029,13.3058,4.60155,2470.577,2023-2-11T05:56:04Z
2023-02-11T03:56:45Z,42.805,6.029,13.3074,4.60165,2470.591,2023-2-11T05:59:07Z
2023-02-11T03:59:48Z,42.805,6.029,13.3058,4.60168,2470.577,2023-2-11T06:02:10Z
2023-02-11T04:02:51Z,42.805,6.029,13.3070,4.60157,2470.544,2023-2-11T06:05:13Z
2023-02-11T04:05:55Z,42.805,6.029,13.3078,4.60168,2470.53,2023-2-11T06:08:16Z
2023-02-11T04:08:58Z,42.805,6.029,13.3089,4.60153,2470.53,2023-2-11T06:11:19Z
2023-02-11T04:12:01Z,42.805,6.029,13.3083,4.60127,2470.544,2023-2-11T06:14:22Z
2023-02-11T04:15:04Z,42.805,6.029,13.3067,4.60170,2470.553,2023-2-11T06:17:25Z
2023-02-11T04:18:07Z,42.805,6.029,13.3066,4.60168,2470.567,2023-2-11T06:20:28Z
2023-02-11T04:21:10Z,42.805,6.029,13.3089,4.60150,2470.567,2023-2-11T06:23:32Z
2023-02-11T04:24:13Z,42.805,6.029,13.3058,4.60122,2470.53,2023-2-11T06:26:35Z
2023-02-11T04:27:16Z,42.805,6.029,13.3082,4.60156,2470.577,2023-2-11T06:29:38Z
2023-02-11T04:30:19Z,42.805,6.029,13.3084,4.60174,2470.553,2023-2-11T06:32:41Z
2023-02-11T04:33:22Z,42.805,6.029,13.3089,4.60128,2470.577,2023-2-11T06:35:44Z
2023-02-11T04:36:25Z,42.805,6.029,13.3068,4.60155,2470.53,2023-2-11T06:38:47Z
2023-02-11T04:39:28Z,42.805,6.029,13.3077,4.60125,2470.577,2023-2-11T06:41:50Z
2023-02-11T04:42:32Z,42.805,6.029,13.3068,4.60145,2470.567,2023-2-11T06:44:53Z
2023-02-11T04:45:35Z,42.805,6.029,13.3073,4.60145,2470.567,2023-2-11T06:47:56Z
2023-02-11T04:48:38Z,42.805,6.029,13.3078,4.60103,2470.553,2023-2-11T06:50:59Z
2023-02-11T04:51:41Z,42.805,6.029,13.3061,4.60138,2470.567,2023-2-11T06:54:02Z
2023-02-11T04:54:44Z,42.805,6.029,13.3065,4.60097,2470.567,2023-2-11T06:57:05Z
2023-02-11T04:57:47Z,42.805,6.029,13.3064,4.60157,2470.544,2023-2-11T07:00:08Z
2023-02-11T05:00:50Z,42.805,6.029,13.3070,4.60107,2470.553,2023-2-11T07:03:12Z
2023-02-11T05:03:53Z,42.805,6.029,13.3064,4.60140,2470.553,2023-2-11T07:06:15Z
2023-02-11T05:06:56Z,42.805,6.029,13.3062,4.60114,2470.553,2023-2-11T07:09:18Z
2023-02-11T05:09:59Z,42.805,6.029,13.3084,4.60122,2470.553,2023-2-11T07:12:21Z
2023-02-11T05:13:02Z,42.805,6.029,13.3054,4.60145,2470.567,2023-2-11T07:15:24Z
2023-02-11T05:16:05Z,42.805,6.029,13.3053,4.60102,2470.614,2023-2-11T07:18:27Z
2023-02-11T05:19:08Z,42.805,6.029,13.3053,4.60114,2470.553,2023-2-11T07:21:30Z
2023-02-11T05:22:12Z,42.805,6.029,13.3070,4.60117,2470.53,2023-2-11T07:24:33Z
2023-02-11T05:25:15Z,42.805,6.029,13.3060,4.60105,2470.544,2023-2-11T07:27:36Z
2023-02-11T05:28:18Z,42.805,6.029,13.3063,4.60098,2470.553,2023-2-11T07:30:39Z
2023-02-11T05:31:21Z,42.805,6.029,13.3069,4.60098,2470.567,2023-2-11T07:33:42Z
2023-02-11T05:34:24Z,42.805,6.029,13.3039,4.60094,2470.567,2023-2-11T07:36:45Z
2023-02-11T05:37:27Z,42.805,6.029,13.3043,4.60110,2470.567,2023-2-11T07:39:49Z
2023-02-11T05:40:30Z,42.805,6.029,13.3045,4.60097,2470.553,2023-2-11T07:42:52Z
2023-02-11T05:43:33Z,42.805,6.029,13.3045,4.60096,2470.553,2023-2-11T07:45:55Z
2023-02-11T05:46:36Z,42.805,6.029,13.3043,4.60112,2470.577,2023-2-11T07:48:58Z
2023-02-11T05:49:39Z,42.805,6.029,13.3051,4.60100,2470.591,2023-2-11T07:52:01Z
2023-02-11T05:52:42Z,42.805,6.029,13.3043,4.60114,2470.553,2023-2-11T07:55:04Z
2023-02-11T05:55:45Z,42.805,6.029,13.3048,4.60101,2470.591,2023-2-11T07:58:07Z
2023-02-11T05:58:48Z,42.805,6.029,13.3041,4.60092,2470.553,2023-2-11T08:01:10Z
2023-02-11T06:01:52Z,42.805,6.029,13.3048,4.60097,2470.591,2023-2-11T08:04:13Z
2023-02-11T06:04:55Z,42.805,6.029,13.3043,4.60093,2470.567,2023-2-11T08:07:16Z
2023-02-11T06:07:58Z,42.805,6.029,13.3048,4.60099,2470.567,2023-2-11T08:10:19Z
2023-02-11T06:11:01Z,42.805,6.029,13.3049,4.60112,2470.553,2023-2-11T08:13:22Z
2023-02-11T06:14:04Z,42.805,6.029,13.3050,4.60104,2470.577,2023-2-11T08:16:25Z
2023-02-11T06:17:07Z,42.805,6.029,13.3054,4.60107,2470.577,2023-2-11T08:19:29Z
2023-02-11T06:20:10Z,42.805,6.029,13.3043,4.60101,2470.614,2023-2-11T08:22:32Z
2023-02-11T06:23:13Z,42.805,6.029,13.3051,4.60110,2470.567,2023-2-11T08:25:35Z
2023-02-11T06:26:16Z,42.805,6.029,13.3062,4.60101,2470.591,2023-2-11T08:28:38Z
2023-02-11T06:29:19Z,42.805,6.029,13.3054,4.60112,2470.624,2023-2-11T08:31:41Z
2023-02-11T06:32:22Z,42.805,6.029,13.3057,4.60110,2470.553,2023-2-11T08:34:44Z
2023-02-11T06:35:25Z,42.805,6.029,13.3060,4.60107,2470.591,2023-2-11T08:37:47Z
2023-02-11T06:38:29Z,42.805,6.029,13.3050,4.60117,2470.577,2023-2-11T08:40:50Z
2023-02-11T06:41:32Z,42.805,6.029,13.3067,4.60116,2470.577,2023-2-11T08:43:53Z
2023-02-11T06:44:35Z,42.805,6.029,13.3059,4.60117,2470.604,2023-2-11T08:46:56Z
2023-02-11T06:47:38Z,42.805,6.029,13.3050,4.60095,2470.614,2023-2-11T08:49:59Z
2023-02-11T06:50:41Z,42.805,6.029,13.3046,4.60105,2470.614,2023-2-11T08:53:02Z
2023-02-11T06:53:44Z,42.805,6.029,13.3059,4.60107,2470.577,2023-2-11T08:56:06Z
2023-02-11T06:56:47Z,42.805,6.029,13.3048,4.60102,2470.586,2023-2-11T08:59:09Z
2023-02-11T06:59:50Z,42.805,6.029,13.3054,4.60106,2470.637,2023-2-11T09:02:12Z
2023-02-11T07:02:53Z,42.805,6.029,13.3048,4.60103,2470.577,2023-2-11T09:05:15Z
2023-02-11T07:05:56Z,42.805,6.029,13.3058,4.60114,2470.637,2023-2-11T09:08:18Z
2023-02-11T07:08:59Z,42.805,6.029,13.3058,4.60109,2470.591,2023-2-11T09:11:21Z
2023-02-11T07:12:02Z,42.805,6.029,13.3056,4.60102,2470.591,2023-2-11T09:14:24Z
2023-02-11T07:15:05Z,42.805,6.029,13.3063,4.60101,2470.624,2023-2-11T09:17:27Z
2023-02-11T07:18:09Z,42.805,6.029,13.3056,4.60102,2470.614,2023-2-11T09:20:30Z
2023-02-11T07:21:12Z,42.805,6.029,13.3041,4.60101,2470.624,2023-2-11T09:23:33Z
2023-02-11T07:24:15Z,42.805,6.029,13.3045,4.60097,2470.637,2023-2-11T09:26:36Z
2023-02-11T07:27:18Z,42.805,6.029,13.3052,4.60099,2470.614,2023-2-11T09:29:39Z
2023-02-11T07:30:21Z,42.805,6.029,13.3058,4.60096,2470.637,2023-2-11T09:32:43Z
2023-02-11T07:33:24Z,42.805,6.029,13.3048,4.60112,2470.637,2023-2-11T09:35:46Z
2023-02-11T07:36:27Z,42.805,6.029,13.3055,4.60102,2470.624,2023-2-11T09:38:49Z
2023-02-11T07:39:30Z,42.805,6.029,13.3063,4.60110,2470.624,2023-2-11T09:41:52Z
2023-02-11T07:42:33Z,42.805,6.029,13.3058,4.60103,2470.624,2023-2-11T09:44:55Z
2023-02-11T07:45:36Z,42.805,6.029,13.3062,4.60119,2470.637,2023-2-11T09:47:58Z
2023-02-11T07:48:39Z,42.805,6.029,13.3069,4.60099,2470.624,2023-2-11T09:51:01Z
2023-02-11T07:51:42Z,42.805,6.029,13.3065,4.60107,2470.624,2023-2-11T09:54:04Z
2023-02-11T07:54:46Z,42.805,6.029,13.3063,4.60110,2470.624,2023-2-11T09:57:07Z
2023-02-11T07:57:49Z,42.805,6.029,13.3066,4.60110,2470.684,2023-2-11T10:00:10Z
2023-02-11T08:00:52Z,42.805,6.029,13.3058,4.60092,2470.646,2023-2-11T10:03:13Z
2023-02-11T08:03:55Z,42.805,6.029,13.3050,4.60109,2470.646,2023-2-11T10:06:16Z
2023-02-11T08:06:58Z,42.805,6.029,13.3048,4.60097,2470.624,2023-2-11T10:09:19Z
2023-02-11T08:10:01Z,42.805,6.029,13.3061,4.60100,2470.67,2023-2-11T10:12:23Z
2023-02-11T08:13:04Z,42.805,6.029,13.3061,4.60104,2470.67,2023-2-11T10:15:26Z
2023-02-11T08:16:07Z,42.805,6.029,13.3057,4.60112,2470.67,2023-2-11T10:18:29Z
2023-02-11T08:19:10Z,42.805,6.029,13.3061,4.60110,2470.684,2023-2-11T10:21:32Z
2023-02-11T08:22:13Z,42.805,6.029,13.3058,4.60107,2470.684,2023-2-11T10:24:35Z
2023-02-11T08:25:16Z,42.805,6.029,13.3053,4.60098,2470.684,2023-2-11T10:27:38Z
2023-02-11T08:28:19Z,42.805,6.029,13.3060,4.60137,2470.693,2023-2-11T10:30:41Z
2023-02-11T08:31:23Z,42.805,6.029,13.3067,4.60102,2470.67,2023-2-11T10:33:44Z
2023-02-11T08:34:26Z,42.805,6.029,13.3066,4.60117,2470.717,2023-2-11T10:36:47Z
2023-02-11T08:37:29Z,42.805,6.029,13.3064,4.60105,2470.707,2023-2-11T10:39:50Z
2023-02-11T08:40:32Z,42.805,6.029,13.3064,4.60104,2470.693,2023-2-11T10:42:53Z
2023-02-11T08:43:35Z,42.805,6.029,13.3058,4.60097,2470.707,2023-2-11T10:45:57Z
2023-02-11T08:46:38Z,42.805,6.029,13.3055,4.60115,2470.67,2023-2-11T10:49:00Z
2023-02-11T08:49:41Z,42.805,6.029,13.3076,4.60127,2470.693,2023-2-11T10:52:03Z
2023-02-11T08:52:44Z,42.805,6.029,13.3063,4.60109,2470.73,2023-2-11T10:55:06Z
2023-02-11T08:55:47Z,42.805,6.029,13.3075,4.60151,2470.67,2023-2-11T10:58:09Z
2023-02-11T08:58:50Z,42.805,6.029,13.3061,4.60129,2470.707,2023-2-11T11:01:12Z
2023-02-11T09:01:53Z,42.805,6.029,13.3085,4.60109,2470.693,2023-2-11T11:04:15Z
2023-02-11T09:04:56Z,42.805,6.029,13.3060,4.60119,2470.693,2023-2-11T11:07:18Z
2023-02-11T09:08:00Z,42.805,6.029,13.3055,4.60128,2470.684,2023-2-11T11:10:21Z
2023-02-11T09:11:03Z,42.805,6.029,13.3067,4.60101,2470.73,2023-2-11T11:13:24Z
2023-02-11T09:14:06Z,42.805,6.029,13.3070,4.60130,2470.73,2023-2-11T11:16:27Z
2023-02-11T09:17:09Z,42.805,6.029,13.3066,4.60127,2470.693,2023-2-11T11:19:30Z
2023-02-11T09:20:12Z,42.805,6.029,13.3052,4.60138,2470.707,2023-2-11T11:22:34Z
2023-02-11T09:23:15Z,42.805,6.029,13.3078,4.60097,2470.717,2023-2-11T11:25:37Z
2023-02-11T09:26:18Z,42.805,6.029,13.3081,4.60204,2470.717,2023-2-11T11:28:40Z
2023-02-11T09:29:21Z,42.805,6.029,13.3042,4.60148,2470.73,2023-2-11T11:31:43Z
2023-02-11T09:32:24Z,42.805,6.029,13.3061,4.60165,2470.717,2023-2-11T11:34:46Z
2023-02-11T09:35:27Z,42.805,6.029,13.3060,4.60172,2470.73,2023-2-11T11:37:49Z
2023-02-11T09:38:30Z,42.805,6.029,13.3064,4.60122,2470.74,2023-2-11T11:40:52Z
2023-02-11T09:41:33Z,42.805,6.029,13.3091,4.60150,2470.754,2023-2-11T11:43:55Z
2023-02-11T09:44:37Z,42.805,6.029,13.3061,4.60173,2470.693,2023-2-11T11:46:58Z
2023-02-11T09:47:40Z,42.805,6.029,13.3052,4.60178,2470.707,2023-2-11T11:50:01Z
2023-02-11T09:50:43Z,42.805,6.029,13.3096,4.60168,2470.717,2023-2-11T11:53:04Z
2023-02-11T09:53:46Z,42.805,6.029,13.3098,4.60184,2470.707,2023-2-11T11:56:08Z
2023-02-11T09:56:49Z,42.805,6.029,13.3106,4.60182,2470.73,2023-2-11T11:59:11Z
2023-02-11T09:59:52Z,42.805,6.029,13.3088,4.60224,2470.777,2023-2-11T12:02:14Z
2023-02-11T10:02:55Z,42.805,6.029,13.3062,4.60170,2470.717,2023-2-11T12:05:17Z
2023-02-11T10:05:58Z,42.805,6.029,13.3081,4.60193,2470.73,2023-2-11T12:08:20Z
2023-02-11T10:09:01Z,42.805,6.029,13.3085,4.60165,2470.693,2023-2-11T12:11:23Z
2023-02-11T10:12:04Z,42.805,6.029,13.3093,4.60221,2470.754,2023-2-11T12:14:26Z
2023-02-11T10:15:07Z,42.805,6.029,13.3109,4.60198,2470.73,2023-2-11T12:17:29Z
2023-02-11T10:18:10Z,42.805,6.029,13.3100,4.60143,2470.707,2023-2-11T12:20:32Z
2023-02-11T10:21:14Z,42.805,6.029,13.3109,4.60137,2470.693,2023-2-11T12:23:35Z
2023-02-11T10:24:17Z,42.805,6.029,13.3065,4.60161,2470.717,2023-2-11T12:26:38Z
2023-02-11T10:27:20Z,42.805,6.029,13.3093,4.60191,2470.73,2023-2-11T12:29:41Z
2023-02-11T10:30:23Z,42.805,6.029,13.3084,4.60132,2470.73,2023-2-11T12:32:44Z
2023-02-11T10:33:26Z,42.805,6.029,13.3064,4.60161,2470.717,2023-2-11T12:35:48Z
2023-02-11T10:36:29Z,42.805,6.029,13.3072,4.60127,2470.73,2023-2-11T12:38:51Z
2023-02-11T10:39:32Z,42.805,6.029,13.3084,4.60110,2470.693,2023-2-11T12:41:54Z
2023-02-11T10:42:35Z,42.805,6.029,13.3068,4.60119,2470.717,2023-2-11T12:44:57Z
2023-02-11T10:45:38Z,42.805,6.029,13.3058,4.60121,2470.754,2023-2-11T12:48:00Z
2023-02-11T10:48:41Z,42.805,6.029,13.3061,4.60162,2470.693,2023-2-11T12:51:03Z
2023-02-11T10:51:44Z,42.805,6.029,13.3089,4.60107,2470.693,2023-2-11T12:54:06Z
2023-02-11T10:54:47Z,42.805,6.029,13.3065,4.60130,2470.754,2023-2-11T12:57:09Z
2023-02-11T10:57:51Z,42.805,6.029,13.3070,4.60184,2470.717,2023-2-11T13:00:12Z
2023-02-11T11:00:54Z,42.805,6.029,13.3075,4.60183,2470.693,2023-2-11T13:03:15Z
2023-02-11T11:03:57Z,42.805,6.029,13.3089,4.60152,2470.717,2023-2-11T13:06:18Z
2023-02-11T11:07:00Z,42.805,6.029,13.3076,4.60129,2470.67,2023-2-11T13:09:22Z
2023-02-11T11:10:03Z,42.805,6.029,13.3054,4.60114,2470.707,2023-2-11T13:12:25Z
2023-02-11T11:13:06Z,42.805,6.029,13.3061,4.60138,2470.707,2023-2-11T13:15:28Z
2023-02-11T11:16:09Z,42.805,6.029,13.3065,4.60116,2470.693,2023-2-11T13:18:31Z
2023-02-11T11:19:12Z,42.805,6.029,13.3070,4.60104,2470.693,2023-2-11T13:21:34Z
2023-02-11T11:22:15Z,42.805,6.029,13.3048,4.60114,2470.693,2023-2-11T13:24:37Z
2023-02-11T11:25:18Z,42.805,6.029,13.3051,4.60096,2470.693,2023-2-11T13:27:40Z
2023-02-11T11:28:21Z,42.805,6.029,13.3046,4.60104,2470.707,2023-2-11T13:30:43Z
2023-02-11T11:31:25Z,42.805,6.029,13.3051,4.60132,2470.693,2023-2-11T13:33:46Z
2023-02-11T11:34:28Z,42.805,6.029,13.3063,4.60110,2470.67,2023-2-11T13:36:49Z
2023-02-11T11:37:31Z,42.805,6.029,13.3063,4.60095,2470.693,2023-2-11T13:39:52Z
2023-02-11T11:40:34Z,42.805,6.029,13.3043,4.60095,2470.684,2023-2-11T13:42:55Z
2023-02-11T11:43:37Z,42.805,6.029,13.3044,4.60137,2470.67,2023-2-11T13:45:59Z
2023-02-11T11:46:40Z,42.805,6.029,13.3050,4.60117,2470.67,2023-2-11T13:49:02Z
2023-02-11T11:49:43Z,42.805,6.029,13.3053,4.60112,2470.67,2023-2-11T13:52:05Z
2023-02-11T11:52:46Z,42.805,6.029,13.3055,4.60105,2470.693,2023-2-11T13:55:08Z
2023-02-11T11:55:49Z,42.805,6.029,13.3052,4.60090,2470.684,2023-2-11T13:58:11Z
2023-02-11T11:58:52Z,42.805,6.029,13.3048,4.60106,2470.661,2023-2-11T14:01:14Z
2023-02-11T12:01:55Z,42.805,6.029,13.3046,4.60091,2470.67,2023-2-11T14:04:17Z
2023-02-11T12:04:58Z,42.805,6.029,13.3057,4.60115,2470.67,2023-2-11T14:07:20Z
2023-02-11T12:08:02Z,42.805,6.029,13.3051,4.60122,2470.661,2023-2-11T14:10:23Z
2023-02-11T12:11:05Z,42.805,6.029,13.3050,4.60125,2470.67,2023-2-11T14:13:26Z
2023-02-11T12:14:08Z,42.805,6.029,13.3058,4.60144,2470.693,2023-2-11T14:16:29Z
2023-02-11T12:17:11Z,42.805,6.029,13.3061,4.60135,2470.67,2023-2-11T14:19:32Z
2023-02-11T12:20:14Z,42.805,6.029,13.3058,4.60170,2470.646,2023-2-11T14:22:36Z
2023-02-11T12:23:17Z,42.805,6.029,13.3051,4.60122,2470.661,2023-2-11T14:25:39Z
2023-02-11T12:26:20Z,42.805,6.029,13.3043,4.60119,2470.67,2023-2-11T14:28:42Z
2023-02-11T12:29:23Z,42.805,6.029,13.3069,4.60098,2470.661,2023-2-11T14:31:45Z
2023-02-11T12:32:26Z,42.805,6.029,13.3052,4.60119,2470.646,2023-2-11T14:34:48Z
2023-02-11T12:35:29Z,42.805,6.029,13.3048,4.60113,2470.661,2023-2-11T14:37:51Z
2023-02-11T12:38:32Z,42.805,6.029,13.3051,4.60108,2470.661,2023-2-11T14:40:54Z
2023-02-11T12:41:35Z,42.805,6.029,13.3040,4.60113,2470.646,2023-2-11T14:43:57Z
2023-02-11T12:44:39Z,42.805,6.029,13.3047,4.60123,2470.646,2023-2-11T14:47:00Z
2023-02-11T12:47:42Z,42.805,6.029,13.3049,4.60096,2470.637,2023-2-11T14:50:03Z
2023-02-11T12:50:45Z,42.805,6.029,13.3053,4.60094,2470.646,2023-2-11T14:53:06Z
2023-02-11T12:53:48Z,42.805,6.029,13.3041,4.60092,2470.661,2023-2-11T14:56:10Z
2023-02-11T12:56:51Z,42.805,6.029,13.3053,4.60108,2470.637,2023-2-11T14:59:13Z
2023-02-11T12:59:54Z,42.805,6.029,13.3048,4.60119,2470.624,2023-2-11T15:02:16Z
2023-02-11T13:02:57Z,42.805,6.029,13.3048,4.60107,2470.637,2023-2-11T15:05:19Z
2023-02-11T13:06:00Z,42.805,6.029,13.3053,4.60110,2470.661,2023-2-11T15:08:22Z
2023-02-11T13:09:03Z,42.805,6.029,13.3050,4.60117,2470.646,2023-2-11T15:11:25Z
2023-02-11T13:12:06Z,42.805,6.029,13.3057,4.60106,2470.624,2023-2-11T15:14:28Z
2023-02-11T13:15:09Z,42.805,6.029,13.3042,4.60103,2470.614,2023-2-11T15:17:31Z
2023-02-11T13:18:13Z,42.805,6.029,13.3066,4.60125,2470.614,2023-2-11T15:20:34Z
2023-02-11T13:21:16Z,42.805,6.029,13.3058,4.60117,2470.661,2023-2-11T15:23:37Z
2023-02-11T13:24:19Z,42.805,6.029,13.3068,4.60146,2470.624,2023-2-11T15:26:40Z
2023-02-11T13:27:22Z,42.805,6.029,13.3079,4.60106,2470.614,2023-2-11T15:29:44Z
2023-02-11T13:30:25Z,42.805,6.029,13.3043,4.60129,2470.624,2023-2-11T15:32:47Z
2023-02-11T13:33:28Z,42.805,6.029,13.3046,4.60117,2470.614,2023-2-11T15:35:50Z
2023-02-11T13:36:31Z,42.805,6.029,13.3048,4.60116,2470.637,2023-2-11T15:38:53Z
2023-02-11T13:39:34Z,42.805,6.029,13.3039,4.60126,2470.6,2023-2-11T15:41:56Z
2023-02-11T13:42:37Z,42.805,6.029,13.3077,4.60126,2470.6,2023-2-11T15:44:59Z
2023-02-11T13:45:40Z,42.805,6.029,13.3051,4.60116,2470.6,2023-2-11T15:48:02Z
2023-02-11T13:48:43Z,42.805,6.029,13.3046,4.60119,2470.591,2023-2-11T15:51:05Z
2023-02-11T13:51:46Z,42.805,6.029,13.3059,4.60110,2470.591,2023-2-11T15:54:08Z
2023-02-11T13:54:50Z,42.805,6.029,13.3048,4.60113,2470.614,2023-2-11T15:57:11Z
2023-02-11T13:57:53Z,42.805,6.029,13.3053,4.60110,2470.6,2023-2-11T16:00:14Z
2023-02-11T14:00:56Z,42.805,6.029,13.3045,4.60114,2470.6,2023-2-11T16:03:17Z
2023-02-11T14:03:59Z,42.805,6.029,13.3048,4.60109,2470.6,2023-2-11T16:06:21Z
2023-02-11T14:07:02Z,42.805,6.029,13.3043,4.60104,2470.591,2023-2-11T16:09:24Z
2023-02-11T14:10:05Z,42.805,6.029,13.3048,4.60114,2470.637,2023-2-11T16:12:27Z
2023-02-11T14:13:08Z,42.805,6.029,13.3050,4.60095,2470.614,2023-2-11T16:15:30Z
2023-02-11T14:16:11Z,42.805,6.029,13.3041,4.60098,2470.577,2023-2-11T16:18:33Z
2023-02-11T14:19:14Z,42.805,6.029,13.3046,4.60116,2470.6,2023-2-11T16:21:36Z
2023-02-11T14:22:17Z,42.805,6.029,13.3043,4.60122,2470.577,2023-2-11T16:24:39Z
2023-02-11T14:25:20Z,42.805,6.029,13.3048,4.60090,2470.577,2023-2-11T16:27:42Z
2023-02-11T14:28:23Z,42.805,6.029,13.3055,4.60114,2470.637,2023-2-11T16:30:45Z
2023-02-11T14:31:26Z,42.805,6.029,13.3051,4.60097,2470.614,2023-2-11T16:33:48Z
2023-02-11T14:34:30Z,42.805,6.029,13.3051,4.60137,2470.591,2023-2-11T16:36:51Z
2023-02-11T14:37:33Z,42.805,6.029,13.3064,4.60098,2470.591,2023-2-11T16:39:54Z
2023-02-11T14:40:36Z,42.805,6.029,13.3051,4.60104,2470.577,2023-2-11T16:42:58Z
2023-02-11T14:43:39Z,42.805,6.029,13.3067,4.60141,2470.6,2023-2-11T16:46:01Z
2023-02-11T14:46:42Z,42.805,6.029,13.3062,4.60115,2470.577,2023-2-11T16:49:04Z
2023-02-11T14:49:45Z,42.805,6.029,13.3046,4.60102,2470.553,2023-2-11T16:52:07Z
2023-02-11T14:52:48Z,42.805,6.029,13.3062,4.60098,2470.6,2023-2-11T16:55:10Z
2023-02-11T14:55:51Z,42.805,6.029,13.3076,4.60112,2470.591,2023-2-11T16:58:13Z
2023-02-11T14:58:54Z,42.805,6.029,13.3046,4.60127,2470.553,2023-2-11T17:01:16Z
2023-02-11T15:01:57Z,42.805,6.029,13.3061,4.60097,2470.591,2023-2-11T17:04:19Z
2023-02-11T15:05:00Z,42.805,6.029,13.3054,4.60102,2470.553,2023-2-11T17:07:22Z
2023-02-11T15:08:03Z,42.805,6.029,13.3049,4.60106,2470.567,2023-2-11T17:10:25Z
2023-02-11T15:11:07Z,42.805,6.029,13.3054,4.60105,2470.577,2023-2-11T17:13:28Z